Regional Weather Roundup
Issued by NWS

Home | Current Version | Previous Version | Graphics & Text | Print | Product List | Glossary On
Versions: 1 2 3 4 5 6 7 8 9 10 11 12 13 14 15 16 17 18 19 20 21 22 23 24 25 26 27 28 29 30 31 32 33 34 35 36 37 38 39 40 41 42 43 44 45 46 47 48 49 50
000
ASUS43 KDMX 171107
RWRIA

WEATHER ROUNDUP FOR IOWA
NATIONAL WEATHER SERVICE DES MOINES IA
500 AM CST WED DEC 17 2014

NOTE: "FAIR" INDICATES FEW OR NO CLOUDS BELOW 12,000 FEET WITH NO
SIGNIFICANT WEATHER AND/OR OBSTRUCTIONS TO VISIBILITY.

* - THESE STATIONS ARE NOT NWS STATIONS...THUS NOT UNDER NWS
QUALITY CONTROL.  THEY ALSO DO NOT REPORT WEATHER SUCH
AS PRECIPITATION OR FOG.

IAZ001>003-012>014-020>022-031>034-043>046-171200-
   NORTHWEST IOWA

CITY           SKY/WX    TMP DP  RH WIND       PRES   REMARKS
CARROLL *      CLEAR     10   7  85 NW6       30.33F WCI   1
CHEROKEE *     PTCLDY    10   9  92 N6        30.33S WCI   1
DENISON *      PTCLDY    12  10  92 N6        30.32S WCI   3
LE MARS *      CLEAR      9   7  92 CALM      30.35S
ORANGE CITY *  CLEAR     10   9  92 N5        30.31F WCI   2
SHELDON *      PTCLDY     7   3  85 NW6       30.31F WCI  -3
SIOUX CITY     PTCLDY    12   8  84 NW3       30.36R
SPENCER        PTCLDY     9   5  84 NW9       30.32S WCI  -4
STORM LAKE *   CLEAR      9   7  92 NW6       30.31F WCI  -1
$$

IAZ055>058-069>071-079>083-090>094-171200-
   SOUTHWEST IOWA

CITY           SKY/WX    TMP DP  RH WIND       PRES   REMARKS
ATLANTIC *     PTCLDY    14  10  85 N7        30.33F WCI   4
AUDUBON *      CLEAR     12   7  79 NW5       30.32F WCI   4
CLARINDA *     CLOUDY    19  16  86 N9        30.36F WCI   9
COUNCIL BLFS * CLEAR     16  14  93 N5        30.33S WCI   9
CRESTON *      CLOUDY    16  12  86 N8        30.32S WCI   5
HARLAN  *      CLEAR     14  12  92 CALM      30.36F
LAMONI         CLOUDY    19  15  84 NW8       30.32S WCI   9
RED OAK *      CLOUDY    18  14  86 N9        30.35F WCI   6
SHENANDOAH *   CLOUDY    19  16  86 N8        30.36F WCI   9
$$

IAZ047>049-059>061-072>074-084-171200-
   CENTRAL IOWA

CITY           SKY/WX    TMP DP  RH WIND       PRES   REMARKS
AMES           PTCLDY    13   8  81 NW7       30.34S WCI   3
ANKENY *       PTCLDY    14  10  85 NW6       30.34S WCI   5
CHARITON *     CLOUDY    16  12  86 N7        30.33S WCI   6
DES MOINES     PTCLDY    15   9  76 NW9       30.34S WCI   3
GRINNELL*      CLOUDY    18  16  93 NW13      30.31S WCI   4
KNOXVILLE *    CLOUDY    18  12  79 NW9       30.32S WCI   6
MARSHALLTOWN   MOCLDY    14  11  87 NW8       30.31S WCI   3
PELLA *        CLOUDY    18  14  86 NW7       30.34S WCI   8
PERRY *          N/A     14  10  85 NW5       30.34S WCI   6
$$

IAZ004>006-015-016-023>025-035-036-171200-
   NORTH CENTRAL IOWA

CITY           SKY/WX    TMP DP  RH WIND       PRES   REMARKS
ALGONA *       CLEAR     12   9  85 NW9       30.32S WCI   0
CLARION *      CLEAR     12  10  92 NW8       30.31S WCI   1
ESTHERVILLE    CLEAR     10   7  87 NW10      30.30F WCI  -4
FORT DODGE *   PTCLDY    12   7  79 NW5       30.32F WCI   4
MASON CITY     MOCLDY    11   7  84 NW12      30.30F WCI  -3
FOREST CITY *  FLURRIES  12   9  85 NW9       30.29S WCI   0
IOWA FALLS *     N/A     14  10  85 W9        30.31S WCI   2
$$

IAZ007>011-017>019-026>030-037>042-050>054-066-171200-
   NORTHEAST IOWA

CITY           SKY/WX    TMP DP  RH WIND       PRES   REMARKS
CEDAR RAPIDS   CLOUDY    19  15  84 NW15      30.29R WCI   5
CHARLES CITY * CLOUDY    14  10  85 NW13      30.28F WCI   0
CLINTON *      CLOUDY    23  16  74 NW12      30.29S WCI  12
DECORAH *      FLURRIES  18  14  86 W9G15     30.23F WCI   6
DUBUQUE        CLOUDY    21  16  81 NW10      30.24R WCI  10
MONTICELLO *   CLOUDY    21  18  86 NW12      30.28R WCI   9
OELWEIN *      CLOUDY    16  14  93 NW13      30.28S WCI   2
WATERLOO       CLOUDY    14  11  87 W10       30.30R WCI   1
$$

IAZ064-065-067-068-078-171200-
   EAST CENTRAL IOWA

CITY           SKY/WX    TMP DP  RH WIND       PRES   REMARKS
DAVENPORT      CLOUDY    22  15  75 W15       30.28S WCI   9
IOWA CITY      CLOUDY    20  14  77 W8        30.32S WCI  10
MT. PLEASANT * CLOUDY    18  14  86 W9        30.33S WCI   6
MUSCATINE *    CLOUDY    21  14  73 NW14      30.33S WCI   8
QUAD CITIES    CLOUDY    22  15  75 W9        30.29S WCI  12
$$

IAZ062-063-075>077-085>089-095>099-171200-
   SOUTHEAST IOWA

CITY           SKY/WX    TMP DP  RH WIND       PRES   REMARKS
BURLINGTON     CLOUDY    19  14  81 NW7       30.32R WCI  10
FAIRFIELD *    FLURRIES  18  12  79 NW8       30.33S WCI   7
FORT MADISON * CLOUDY    19  18  93 NW9       30.33S WCI   9
KEOKUK *       CLOUDY    19  16  86 NW9G16    30.32S WCI   9
OSKALOOSA *    CLOUDY    18  14  86 NW8       30.33R WCI   7
CENTERVILLE *  CLOUDY    19  16  86 NW9       30.33S WCI   9
OTTUMWA        CLOUDY    17  11  77 NW10      30.32S WCI   5
WASHINGTON *   CLOUDY    19  18  93 NW8G15    30.32S WCI   9
$$

ABBREVIATIONS USED IN REMARKS
   TC - TEMPERATURES IN CELSIUS
  WCI - WIND CHILL INDEX
   HX - HEAT INDEX
  VSB - VISIBILITY
$$




USA.gov is the U.S. government's official web portal to all federal, state and local government web resources and services.